Home   Weather   Strausberg   Past weeks

Flag for Germany Past Weather in Strausberg, Brandenburg, Germany — Yesterday and Last 2 Weeks

Now
19 °F

Passing clouds.


Feels Like: 14 °F
Forecast: 21 / 27 °F
Wind: 3 mph from Southwest

Location: Berlin-Schoenefeld

Current Time: Jan 18, 2017 at 2:56:44 am

Latest Report: Jan 18, 2017 at 2:20 am


Visibility: 4 mi

Pressure: 30.72 "Hg

Humidity: 93%

Dew Point: 18 °F

Location of StrausbergLocation

Past Weather in Strausberg — Graph

°F

Strausberg Temperature Yesterday

Maximum temperature yesterday: 36 °F (at 2:50 pm)
Minimum temperature yesterday: 18 °F (at 8:50 am)
Average temperature yesterday: 27 °F

High & Low Weather Summary for the Past Weeks

 TemperatureHumidityPressure
High41 °F (Jan 4, 2:20 am)100% (Jan 3, 1:50 am)30.74 "Hg (Jan 3, 1:50 am)
Low10 °F (Jan 7, 1:20 am)54% (Jan 5, 2:50 pm)29.03 "Hg (Jan 13, 6:50 am)
Average29 °F87%30.03 "Hg
* Reported Jan 3 1:20 am — Jan 18 1:50 am, Strausberg, Weather by CustomWeather, © 2017

Note: Actual official high and low records may vary slightly from our data, if they occured in-between our weather recording intervals... More about our weather records

Advertising

Strausberg Weather History for the Previous 24 Hours

Scroll right to see more
 ConditionsComfort  
Time TempWeatherWind HumidityBarometerVisibility
1:50 am
Wed, Jan 18
19 °FPassing clouds.5 mph93%30.72 "Hg6 mi
1:20 am19 °FPassing clouds.6 mph100%30.72 "HgN/A
12:50 am19 °FClear.3 mph93%30.69 "Hg10 mi
12:20 am19 °FClear.No wind93%30.69 "Hg10 mi
11:50 pm
Tue, Jan 17
19 °FFog.2 mph100%30.69 "HgN/A
11:20 pm21 °FFog.1 mph100%30.69 "HgN/A
10:50 pm21 °FFog.3 mph100%30.69 "HgN/A
10:20 pm21 °FCold.1 mph93%30.69 "HgN/A
9:50 pm19 °FFog.2 mph100%30.69 "HgN/A
9:20 pm23 °FPassing clouds.2 mph93%30.69 "HgN/A
8:50 pm23 °FClear.2 mph93%30.69 "Hg10 mi
8:20 pm25 °FPassing clouds.2 mph86%30.69 "HgN/A
7:50 pm27 °FPassing clouds.No wind80%30.69 "HgN/A
7:20 pm27 °FPassing clouds.No wind86%30.66 "HgN/A
6:50 pm28 °FPassing clouds.2 mph80%30.66 "HgN/A
6:20 pm30 °FPassing clouds.2 mph80%30.66 "HgN/A
5:50 pm32 °FPassing clouds.2 mph75%30.66 "HgN/A
5:20 pm32 °FPassing clouds.2 mph75%30.63 "HgN/A
4:50 pm34 °FPassing clouds.5 mph70%30.63 "HgN/A
4:20 pm34 °FScattered clouds.2 mph70%30.63 "HgN/A
3:50 pm34 °FScattered clouds.2 mph70%30.63 "HgN/A
3:20 pm36 °FScattered clouds.6 mph56%30.63 "HgN/A
2:50 pm36 °FPassing clouds.7 mph60%30.60 "HgN/A
2:20 pm34 °FSunny.6 mph65%30.60 "Hg10 mi
1:50 pm34 °FSunny.6 mph70%30.60 "Hg10 mi
1:20 pm34 °FPassing clouds.3 mph65%30.60 "HgN/A
12:50 pm32 °FSunny.5 mph75%30.60 "Hg10 mi
12:20 pm32 °FSunny.5 mph75%30.60 "Hg10 mi
11:50 am30 °FSunny.5 mph80%30.60 "Hg10 mi
11:20 am30 °FPassing clouds.3 mph75%30.60 "HgN/A
10:50 am32 °FPassing clouds.No wind75%30.60 "HgN/A
10:20 am27 °FPassing clouds.3 mph86%30.60 "HgN/A
9:50 am25 °FPassing clouds.1 mph93%30.57 "HgN/A
9:20 am23 °FPassing clouds.2 mph93%30.57 "HgN/A
8:50 am18 °FFog.5 mph100%30.57 "HgN/A
8:20 am21 °FFog.2 mph93%30.57 "HgN/A
7:50 am21 °FFog.2 mph93%30.54 "HgN/A
7:20 am23 °FFog.3 mph93%30.54 "HgN/A
6:50 am23 °FFog.3 mph93%30.51 "HgN/A
6:20 am21 °FPassing clouds.2 mph93%30.51 "HgN/A
5:50 am25 °FPassing clouds.2 mph93%30.51 "HgN/A
5:20 am27 °FPassing clouds.3 mph86%30.48 "HgN/A
4:50 am27 °FPassing clouds.2 mph93%30.48 "HgN/A
4:20 am27 °FPassing clouds.5 mph93%30.48 "HgN/A
3:50 am27 °FPassing clouds.9 mph93%30.48 "HgN/A
3:20 am27 °FPassing clouds.7 mph93%30.48 "HgN/A
2:50 am28 °FPassing clouds.5 mph93%30.45 "HgN/A
2:20 am28 °FPassing clouds.3 mph86%30.45 "HgN/A
Weather by CustomWeather, © 2017

See weather overviewHow to use our weather pages